Satellite-Ground Cal/Val Region Overpasses Predictions

Prediction of Satellite NPP Overpassing Cal/Val Region: PacNW

Region Location: (Latitude: 10.00, Longitude: 139.50) to (Latitude: 22.70, Longitude: 165.60).

Table of predicted overpasses for the next 14.0 days since TLE Epoch: 2/7/2014
Interval Starting Time Starting Location Ending Time Ending Location
1 02/07/2014 15:52:29 ( 22.67, 147.57) 02/07/2014 15:56:04 ( 10.05, 144.56)
2 02/08/2014 03:01:34 ( 10.02, 155.07) 02/08/2014 03:05:10 ( 22.70, 152.04)
3 02/08/2014 15:33:28 ( 22.66, 152.33) 02/08/2014 15:37:03 ( 10.04, 149.31)
4 02/09/2014 02:42:34 ( 10.04, 159.82) 02/09/2014 02:46:09 ( 22.66, 156.81)
5 02/09/2014 15:14:27 ( 22.70, 157.10) 02/09/2014 15:18:03 ( 10.02, 154.07)
6 02/10/2014 02:23:33 ( 10.05, 164.58) 02/10/2014 02:27:08 ( 22.67, 161.56)
7 02/10/2014 14:55:26 ( 22.68, 161.85) 02/10/2014 14:59:02 ( 10.00, 158.82)
8 02/11/2014 03:46:02 ( 10.02, 143.97) 02/11/2014 03:49:38 ( 22.69, 140.94)
9 02/11/2014 14:37:36 ( 18.55, 165.59) 02/11/2014 14:40:01 ( 10.04, 163.59)
10 02/11/2014 16:17:56 ( 22.66, 141.23) 02/11/2014 16:19:57 ( 15.56, 139.50)
11 02/12/2014 03:27:01 ( 10.04, 148.72) 02/12/2014 03:30:36 ( 22.66, 145.71)
12 02/12/2014 15:58:54 ( 22.69, 146.00) 02/12/2014 16:02:30 ( 10.02, 142.97)
13 02/13/2014 03:08:00 ( 10.00, 153.49) 02/13/2014 03:11:36 ( 22.68, 150.46)
14 02/13/2014 15:39:54 ( 22.67, 150.75) 02/13/2014 15:43:29 ( 10.05, 147.74)
15 02/14/2014 02:49:00 ( 10.02, 158.24) 02/14/2014 02:52:35 ( 22.65, 155.23)
16 02/14/2014 15:20:53 ( 22.65, 155.50) 02/14/2014 15:24:28 ( 10.03, 152.49)
17 02/15/2014 02:29:59 ( 10.05, 163.00) 02/15/2014 02:33:34 ( 22.67, 159.98)
18 02/15/2014 15:01:52 ( 22.68, 160.27) 02/15/2014 15:05:28 ( 10.00, 157.24)
19 02/16/2014 02:13:35 ( 19.24, 165.59) 02/16/2014 02:14:34 ( 22.70, 164.74)
20 02/16/2014 03:52:28 ( 10.02, 142.39) 02/16/2014 03:55:54 ( 22.11, 139.51)
21 02/16/2014 14:42:51 ( 22.65, 165.02) 02/16/2014 14:46:26 ( 10.04, 162.01)
22 02/16/2014 16:24:21 ( 22.65, 139.65) 02/16/2014 16:24:31 ( 22.07, 139.50)
23
